Home   Weather   Oftringen   Past weeks
Flag for Switzerland

Past Weather in Oftringen, Aargau, Switzerland — Yesterday and Last 2 Weeks

Now
69 °F

Mild.


Feels Like: 69 °F
Forecast: 72 / 38 °F
Wind: 15 mph from East

Location: Wynau

Current Time: Apr 7, 2020 at 3:34:03 pm

Latest Report: Apr 7, 2020 at 2:00 pm


Visibility: N/A

Pressure: 30.28 "Hg

Humidity: 30%

Dew Point: 36 °F

Location of OftringenLocation

Past Weather in Oftringen — Graph

°F

Oftringen Temperature Yesterday

Maximum temperature yesterday: 68 °F (at 4:00 pm)
Minimum temperature yesterday: 33 °F (at 7:00 am)
Average temperature yesterday: 48 °F

High & Low Weather Summary for the Past Weeks

 TemperatureHumidityPressure
High69 °F (Apr 7, 2:00 pm)96% (Mar 28, 3:00 am)30.46 "Hg (Mar 28, 3:00 am)
Low25 °F (Apr 1, 7:00 am)22% (Apr 5, 6:00 pm)29.82 "Hg (Apr 2, 6:00 pm)
Average41 °F62%30.15 "Hg
* Reported Mar 23 1:00 pm — Apr 7 2:00 pm, Oftringen. Weather by CustomWeather, © 2020

Note: Actual official high and low records may vary slightly from our data, if they occured in-between our weather recording intervals... More about our weather records

Oftringen Weather History for the Previous 24 Hours

Scroll right to see more
 ConditionsComfort  
Time TempWeatherWind HumidityBarometerVisibility
2:00 pm
Tue, Apr 7
69 °FMild.15 mph30%30.28 "HgN/A
1:00 pm67 °FMild.8 mph35%30.31 "HgN/A
12:00 pm62 °FRefreshingly cool.5 mph40%30.34 "HgN/A
11:00 am55 °FRefreshingly cool.3 mph50%30.38 "HgN/A
10:00 am48 °FCool.No wind65%30.41 "HgN/A
9:00 am41 °FQuite cool.No wind80%30.44 "HgN/A
8:00 am35 °FChilly.No wind92%30.46 "HgN/A
7:00 am35 °FChilly.No wind93%30.45 "HgN/A
6:00 am35 °FChilly.1 mph94%30.44 "HgN/A
5:00 am36 °FChilly.No wind90%30.43 "HgN/A
4:00 am37 °FChilly.No wind90%30.42 "HgN/A
3:00 am38 °FChilly.No wind89%30.40 "HgN/A
2:00 am39 °FChilly.1 mph88%30.39 "HgN/A
1:00 am42 °FQuite cool.1 mph82%30.37 "HgN/A
12:00 am43 °FQuite cool.1 mph80%30.35 "HgN/A
11:00 pm
Mon, Apr 6
46 °FCool.2 mph73%30.33 "HgN/A
10:00 pm47 °FCool.1 mph69%30.32 "HgN/A
9:00 pm51 °FCool.2 mph60%30.27 "HgN/A
8:00 pm57 °FRefreshingly cool.No wind45%30.23 "HgN/A
4:00 pm68 °FMild.3 mph30%30.19 "HgN/A
3:00 pm68 °FMild.2 mph29%30.19 "HgN/A
Weather by CustomWeather, © 2020

See weather overview

Advertising